[[{"header":{"parameterUnit":"m.s-1","parameterCategory":1,"la1":30.2991,"la2":30.254,"lo1":-89.0895,"lo2":-89.0444,"dy":0.0017,"dx":0.0017,"nx":28,"ny":28,"refTime":"2025-07-16T21:00:00:Z","depth":0,"parameterNumber":2,"parameterNumberName":"U-component_of_WINDS"},"data":[0,0,0,0,0,0,0,0,0,0,0,0,0,0,0,0,0,0,0,0,0,0,0,0,0,0,0,0,0,0,0,0,0,0,0,0,0,0,0,0,0,0,0,0,0,0,0,0,0,0,0,0,0,0,0,0,0,0,4.8806,4.8802,0,4.8469,4.8465,4.8461,4.8133,4.8129,4.8125,4.8121,4.7752,4.7747,4.7741,0,0,0,0,0,0,0,0,0,0,0,0,0,4.9148,4.9144,4.8806,4.8802,4.8798,4.8469,4.8465,4.846,4.8134,4.8129,4.8123,4.8119,4.7754,4.7747,4.774,0,0,0,0,0,0,0,0,0,0,0,0,0,4.8924,4.9142,4.8807,4.8596,4.8574,4.847,4.8464,4.8459,4.8135,4.8128,4.8122,4.8116,4.7757,4.7748,4.7739,4.781,0,0,4.7712,4.7708,0,0,0,0,0,0,0,0,4.8937,4.8912,4.8631,4.861,4.8585,4.8337,4.845,4.824,4.8136,4.8301,4.812,4.8113,4.795,4.7925,4.7875,4.7793,4.7777,4.7711,4.7706,4.7702,4.77,0,0,0,0,0,0,0,4.8953,4.8924,4.8672,4.8627,4.8599,4.8512,4.8473,4.8409,4.8164,4.8286,4.8261,4.8227,4.7936,4.7884,4.7864,4.7772,4.7712,4.7704,4.7698,4.7695,4.7727,4.7733,0,0,0,0,0,0,4.9004,4.8939,4.8682,4.8662,4.875,4.8511,4.8467,4.8423,4.8164,4.8119,4.8233,4.8213,4.7903,4.7875,4.785,4.7913,4.7702,4.7694,4.7689,4.7721,4.7729,4.7735,0,0,0,0,0,0,4.9012,4.8984,4.8696,4.8794,4.8751,4.8512,4.8464,4.8419,4.8367,4.8124,4.8077,4.8226,4.7897,4.7862,4.7823,4.7896,4.769,4.7682,4.7714,4.7724,4.7732,4.8043,0,0,0,0,0,0,4.9024,4.8989,4.9018,4.8797,4.8747,4.8683,4.8469,4.8417,4.8355,4.8326,4.8105,4.8062,4.7889,4.7839,4.7815,4.788,4.7675,4.7706,4.7718,4.7729,4.8025,4.8062,4.8093,0,0,0,0,0,4.9037,4.9114,4.9021,4.8992,4.8779,4.8688,4.8658,4.8464,4.8363,4.8386,4.8231,4.8069,4.7894,4.7838,4.7808,4.7871,4.7701,4.7715,4.7728,4.801,4.8054,4.8092,0,0,0,0,0,0,4.9341,4.9081,4.8975,4.8985,4.8863,4.8633,4.8656,4.8517,4.8414,4.839,4.8147,4.81,4.8088,4.7975,4.7918,4.7925,4.7774,4.7783,4.7998,4.8039,4.8073,4.8097,4.7668,0,0,0,0,0,4.9412,4.9366,4.9138,4.9168,4.9113,4.8898,4.885,4.8712,4.8571,4.8515,4.8356,4.822,4.8133,4.808,4.7987,4.8009,4.7953,4.8038,4.8072,4.8102,4.8109,4.8109,4.8143,4.7781,4.7781,4.7781,0,0,4.9551,4.9404,4.9388,4.9226,4.9114,4.9066,4.8855,4.8812,4.8771,4.8505,4.846,4.8341,4.8171,4.8164,4.8152,4.8069,4.8198,4.8119,4.8145,4.8136,4.8127,4.8162,4.8192,4.7791,4.7789,4.7787,0,0,4.9782,4.9669,4.9681,4.9576,4.9412,4.9269,4.9273,4.9066,4.8978,4.8931,4.873,4.8675,4.8533,4.842,4.8345,4.8539,4.8384,4.8515,4.8689,4.8692,4.8721,4.8745,4.8809,4.8836,4.8525,4.8526,4.8526,0,4.9974,4.99,4.9702,4.9674,4.9606,4.9373,4.938,4.9284,4.9097,4.9052,4.8966,4.8783,4.8652,4.8614,4.8663,4.861,4.8601,4.8535,4.8735,4.8756,4.8775,4.8834,4.8859,4.8542,4.854,4.8539,4.8537,0,5.0143,5.0095,5.0123,4.9957,4.9892,4.9882,4.9677,4.9634,4.9504,4.9368,4.9321,4.9159,4.9029,4.901,4.8878,4.8952,4.8906,4.8782,4.8623,4.883,4.888,4.8902,4.8566,4.856,4.8555,4.8551,0,0,5.0549,5.0279,5.0292,5.0213,5.0018,4.9973,4.9951,4.9831,4.9798,4.9677,4.9647,4.9535,4.9419,4.9333,4.9187,4.9191,4.935,4.9063,4.9055,4.9118,4.9416,4.9508,4.9538,4.925,4.9254,4.9257,4.9428,0,5.0742,5.0695,5.0518,5.052,5.047,5.025,5.0229,5.0105,4.9979,4.9912,4.9768,4.9692,4.9547,4.9494,4.9489,4.9333,4.9406,4.9318,4.9211,4.921,4.9256,4.9564,4.966,4.983,4.9447,4.9451,4.9453,0,5.096,5.0862,5.0862,5.067,5.0642,5.0628,5.0504,5.0447,5.0299,5.0206,5.0116,4.9955,4.9912,4.9772,4.9706,4.9651,4.9597,4.9515,4.9516,4.9493,4.934,4.9544,4.988,4.9904,4.9483,4.9481,4.9478,0,5.1251,5.1119,5.1101,5.1041,5.0817,5.0812,5.0717,5.0564,5.0504,5.0394,5.0352,5.0237,5.0172,5.0083,4.9894,4.981,4.9847,4.9692,4.9762,4.9767,4.9773,4.9775,5.0101,4.9751,4.9751,4.975,4.975,0,5.1481,5.1488,5.1229,5.1218,5.1218,5.1014,5.1017,5.09,5.0767,5.0724,5.0526,5.0488,5.0244,5.0177,5.0028,4.9993,4.9966,4.9884,4.9843,4.9899,4.9909,4.9855,4.9836,4.9757,4.9755,4.9754,4.9753,0,5.1803,5.1631,5.1596,5.1391,5.1339,5.1348,5.1168,5.1145,5.1011,5.0959,5.0934,5.0719,5.063,5.0436,5.029,5.019,5.019,5.012,5.0242,5.0216,5.0295,5.0289,5.0593,5.062,5.0261,5.0265,5.0268,0,5.1959,5.196,5.1758,5.1719,5.1635,5.1574,5.1514,5.1312,5.1256,5.1091,5.1087,5.0985,5.0891,5.0757,5.0583,5.0471,5.0393,5.0508,5.0374,5.043,5.0388,5.0388,5.0385,5.0535,5.054,5.0544,5.0548,0,5.2252,5.2168,5.2092,5.1989,5.1925,5.1831,5.1725,5.1703,5.1475,5.1421,5.1333,5.1262,5.1119,5.1016,5.088,5.0772,5.062,5.0594,5.0602,5.0655,5.0724,5.0683,5.0317,5.0585,5.0581,5.0578,5.0576,5.0575,5.249,5.2481,5.2338,5.226,5.2163,5.207,5.2039,5.1904,5.1829,5.1702,5.1586,5.1508,5.1357,5.116,5.1064,5.0994,5.0918,5.0933,5.0935,5.094,5.0963,5.0743,5.0969,5.0967,5.0966,5.0965,5.0964,0,5.2768,5.2667,5.2599,5.2462,5.2401,5.2275,5.2152,5.2106,5.2042,5.192,5.1835,5.1731,5.1632,5.1454,5.1338,5.1316,5.1243,5.1292,5.1287,5.1265,5.1039,5.1041,5.1353,5.1353,5.1353,5.1353,5.1353,5.1353,5.2905,5.2883,5.2783,5.2708,5.2603,5.2531,5.2472,5.2383,5.2285,5.2181,5.2102,5.199,5.1842,5.1715,5.1617,5.1566,5.1529,5.16,5.1526,5.1318,5.1281,5.1246,5.1245,5.1595,5.1596,5.1755,5.1757,5.1758]},{"header":{"parameterUnit":"m.s-1","parameterCategory":1,"la1":30.2991,"la2":30.254,"lo1":-89.0895,"lo2":-89.0444,"dy":0.0017,"dx":0.0017,"nx":28,"ny":28,"refTime":"2025-07-16T21:00:00:Z","depth":0,"parameterNumber":3,"parameterNumberName":"V-component_of_WINDS"},"data":[0,0,0,0,0,0,0,0,0,0,0,0,0,0,0,0,0,0,0,0,0,0,0,0,0,0,0,0,0,0,0,0,0,0,0,0,0,0,0,0,0,0,0,0,0,0,0,0,0,0,0,0,0,0,0,0,0,0,2.885,2.8853,0,2.9109,2.9112,2.9115,2.9086,2.9081,2.9077,2.9073,2.9353,2.9364,2.9376,0,0,0,0,0,0,0,0,0,0,0,0,0,2.8343,2.8352,2.885,2.8853,2.8856,2.9109,2.9112,2.9116,2.9086,2.9081,2.9076,2.9071,2.935,2.9363,2.9377,0,0,0,0,0,0,0,0,0,0,0,0,0,2.8579,2.8355,2.8849,2.8871,2.8876,2.9108,2.9113,2.9117,2.9087,2.9081,2.9075,2.9069,2.9345,2.9362,2.9378,2.9609,0,0,2.943,2.9438,0,0,0,0,0,0,0,0,2.8566,2.8598,2.8865,2.887,2.8876,2.9058,2.9036,2.9283,2.9089,2.9008,2.9073,2.9066,2.9261,2.9285,2.9348,2.9622,2.9634,2.9432,2.9442,2.945,2.9454,0,0,0,0,0,0,0,2.8549,2.8587,2.8953,2.8869,2.8876,2.8873,2.89,2.9083,2.9167,2.9014,2.9013,2.9043,2.9263,2.9331,2.9354,2.9638,2.9431,2.9447,2.9457,2.9464,3.0116,3.0123,0,0,0,0,0,0,2.8526,2.8573,2.8945,2.8961,2.8702,2.8887,2.8917,2.9006,2.9165,2.9183,2.9048,2.9041,2.9305,2.9334,2.9364,2.9643,2.9449,2.9465,2.9475,3.0109,3.0118,3.0125,0,0,0,0,0,0,2.8515,2.8559,2.8934,2.8767,2.8814,2.8903,2.9003,2.9015,2.9083,2.919,2.9206,2.9101,2.9301,2.934,2.9547,2.9652,2.9473,2.9489,3.0101,3.0112,3.0122,3.0204,0,0,0,0,0,0,2.85,2.8555,2.864,2.8768,2.8823,2.9109,2.901,2.9024,2.911,2.9103,2.9244,2.9262,2.9299,2.9522,2.9564,2.9673,2.9502,3.0092,3.0106,3.0118,3.0193,3.0216,3.0237,0,0,0,0,0,2.8482,2.8656,2.8645,2.869,2.893,2.9115,2.9147,2.9182,2.9119,2.9207,2.9277,2.9257,2.9635,2.9544,2.9591,2.9706,3.0085,3.0102,3.0117,3.0183,3.0212,3.0236,0,0,0,0,0,0,2.8543,2.8673,2.8662,2.8882,2.8987,2.911,2.9222,2.9213,2.9342,2.933,2.9373,2.9406,2.9615,2.9682,2.9578,2.9938,2.9852,2.9878,2.9885,2.9914,2.9936,2.9915,2.9516,0,0,0,0,0,2.8581,2.8716,2.8825,2.9009,2.9061,2.9133,2.9215,2.9233,2.9346,2.9391,2.9476,2.959,2.9734,2.9829,2.9967,3.0203,3.0234,3.0306,3.0328,3.0346,3.0368,3.0497,3.053,3.0178,3.0178,3.0178,0,0,2.8663,2.8751,2.8834,2.9023,2.9106,2.9249,2.9171,2.9325,2.9432,2.9417,2.9615,2.9682,2.9813,3.0035,3.0137,3.0097,3.0472,3.0366,3.0379,3.0392,3.0517,3.055,3.058,3.0189,3.0187,3.0185,0,0,2.8883,2.8963,2.9124,2.9209,2.9335,2.9382,2.9421,2.9545,2.9587,2.9787,2.9778,2.9909,3.0157,3.0249,3.0329,3.0586,3.0573,3.0631,3.0746,3.0872,3.09,3.0924,3.1015,3.1047,3.0653,3.0653,3.0653,0,2.897,2.9179,2.921,2.9364,2.9448,2.9437,2.9602,2.9685,2.9853,2.9913,2.9865,3.0174,3.0262,3.0505,3.0567,3.0633,3.068,3.0614,3.0892,3.0918,3.0941,3.1028,3.1062,3.0659,3.0658,3.0658,3.0657,0,2.9279,2.9425,2.9541,2.9696,2.9795,2.9955,3.0013,3.011,3.012,3.0173,3.0378,3.0483,3.0641,3.0701,3.0716,3.0948,3.0919,3.0882,3.0796,3.098,3.1062,3.1096,3.0668,3.0665,3.0664,3.0662,0,0,2.9543,2.9713,2.9755,2.9825,2.9965,3.008,3.0242,3.0392,3.0474,3.0592,3.0728,3.0938,3.0904,3.0994,3.1019,3.113,3.1325,3.108,3.1083,3.112,3.1587,3.1612,3.165,3.1319,3.1325,3.1331,3.1575,0,2.9776,3.0054,3.0087,3.0336,3.0472,3.0465,3.0605,3.0708,3.0763,3.089,3.0952,3.1099,3.1043,3.1098,3.1207,3.1278,3.142,3.1262,3.1449,3.1455,3.1412,3.1693,3.172,3.1946,3.1608,3.1614,3.1618,0,3.0084,3.0203,3.0465,3.0584,3.0643,3.0767,3.0908,3.1029,3.1147,3.118,3.128,3.1291,3.1461,3.137,3.1606,3.1497,3.1577,3.1624,3.1634,3.1651,3.1545,3.1716,3.2019,3.2052,3.1669,3.1665,3.1661,0,3.0247,3.0476,3.0661,3.0722,3.0867,3.0955,3.102,3.1131,3.122,3.1346,3.1404,3.155,3.163,3.1744,3.1795,3.1724,3.2028,3.1941,3.2061,3.2059,3.2123,3.2118,3.2441,3.2179,3.2178,3.2177,3.2177,0,3.0502,3.0662,3.0736,3.085,3.103,3.1069,3.1248,3.1311,3.141,3.1539,3.1544,3.1666,3.1727,3.1859,3.1901,3.209,3.2127,3.2159,3.2168,3.2157,3.2153,3.2208,3.2193,3.2186,3.2184,3.2183,3.2181,0,3.0714,3.077,3.0971,3.1091,3.1125,3.1252,3.1357,3.147,3.1523,3.1686,3.1727,3.1813,3.1969,3.2031,3.2224,3.2252,3.2468,3.2467,3.2426,3.2428,3.2544,3.2531,3.2912,3.2963,3.2669,3.2671,3.2674,0,3.0871,3.0994,3.1126,3.1209,3.1276,3.1413,3.1502,3.1548,3.1641,3.1785,3.1881,3.2035,3.216,3.2411,3.2492,3.264,3.264,3.2764,3.2663,3.2647,3.264,3.263,3.2642,3.2781,3.2784,3.2787,3.2789,0,3.1145,3.1166,3.1291,3.1428,3.1533,3.1644,3.1752,3.1823,3.1885,3.1991,3.2147,3.2244,3.2439,3.2592,3.2744,3.2816,3.2814,3.282,3.2855,3.2844,3.2814,3.283,3.2474,3.2811,3.2809,3.2807,3.2806,3.2805,3.1333,3.144,3.1549,3.169,3.1775,3.1876,3.1986,3.2053,3.2183,3.234,3.2362,3.253,3.2647,3.2849,3.2928,3.3062,3.303,3.3082,3.3095,3.3106,3.3112,3.2795,3.3091,3.309,3.309,3.3089,3.3089,0,3.1604,3.1673,3.1802,3.1951,3.2062,3.2047,3.2166,3.2261,3.2407,3.2515,3.2637,3.2818,3.2967,3.306,3.3211,3.3301,3.3304,3.3339,3.3331,3.3348,3.3133,3.3086,3.3334,3.3334,3.3334,3.3334,3.3334,3.3334,3.1758,3.1938,3.1973,3.2197,3.2267,3.2428,3.2497,3.2591,3.2676,3.2876,3.2998,3.3056,3.3159,3.3318,3.3455,3.3479,3.3533,3.357,3.3592,3.3389,3.3363,3.3339,3.3295,3.3583,3.3583,3.3795,3.3797,3.3799]}]]